Terminal Aerodrome Forecast
Issued by NWS Mt. Holly, NJ

Home | Current Version | Previous Version | Text Only | Print | Product List | Glossary On
Versions: 1 2 3 4 5 6 7 8 9 10 11 12 13 14 15 16 17 18 19 20 21 22 23 24 25 26 27 28 29 30 31
883
FTUS41 KPHI 290901 AAC
TAFPHL
TAF AMD
KPHL 290901Z 2909/3012 VRB04KT P6SM BKN045 OVC080
      TEMPO 2909/2911 6SM SHRA
     FM291100 23007KT P6SM BKN050
     FM291600 26013G19KT P6SM -SHRA SCT050 BKN150
     FM292200 28009KT P6SM -SHRA SCT050 BKN150 PROB30 2922/2924 4SM
      TSRA BKN050CB
     FM300300 01006KT P6SM BKN150
     FM300600 03005KT 5SM BR BKN015=

USA.gov is the U.S. government's official web portal to all federal, state and local government web resources and services.